Content
SEND FEEDBACK

Daily
Averages
Monthly
Summary
United States of America

DESCANSO, CALIFORNIA


Home > North America > United States > California
Elevation: 5266 feet     Latitude: 32 59N     Longitude: 116 35W

WEATHER
 
SELECT A DAY
Number of Records: 187,557;   Date Range: 8/13/98 - 7/29/14
 
SHARE

PRINT THIS DATA

[ ← Previous Day ]
WEATHER ALMANAC - JANUARY 31, 2013
[ Next Day → ]
[ °C ]   °F
Weather ElementAverageHighLow
Temperature51.9 °F73.9 °F (2:53 pm)33.1 °F (6:53 am)
Dewpoint34.4 °F41 °F (8:53 am)30 °F (4:53 pm)
Humidity59.4 %97 % (2:53 am)21 % (2:53 pm)
Barometer30.15 in30.21 in (9:53 am)30.09 in (2:53 pm)
Wind Speed4.6 mph12.7 mph (12:53 pm)
Wind Gust43.7 mph (10:42 pm)
Weather ElementAverage
Visibility9.9 mi
Wind DirectionNNE (38.8 °)

Weather ElementTotal
Precipitation---
Heating Degree Days11.5 (Base 65)
Growing Degree Days3.5 (Base 50)
Averaged from 25 records on January 31, 2013
WEATHER CONDITIONS BREAKOUT
WIND DIRECTION BREAKOUT
WEATHER BY HOUR - JANUARY 31, 2013
[ °C ]   °F
Local TimeTemperatureDewpointHumidityBarometerVisibilityWind DirectionWind SpeedGust SpeedPrecipitationEventsConditions
1:53 AM37.0 °F35.1 °F93 %30.20 in10.0 miCalmClear
2:53 AM36.0 °F35.1 °F97 %30.18 in9.0 miCalmClear
3:53 AM35.1 °F34.0 °F96 %30.17 in10.0 miCalmClear
4:53 AM35.1 °F33.1 °F92 %30.17 in8.0 miEast (100°)3.5 mphClear
5:53 AM35.1 °F33.1 °F92 %30.17 in10.0 miCalmClear
6:53 AM33.1 °F30.9 °F92 %30.18 in10.0 miCalmClear
7:53 AM37.9 °F35.1 °F89 %30.19 in10.0 miESE (120°)3.5 mphClear
8:53 AM50.0 °F41.0 °F71 %30.19 in10.0 miCalmClear
9:53 AM62.1 °F37.0 °F39 %30.21 in10.0 miCalmClear
10:53 AM69.1 °F37.0 °F31 %30.18 in10.0 miENE (70°)3.5 mphClear
11:53 AM72.0 °F33.1 °F24 %30.15 in10.0 miEast (80°)10.4 mphClear
12:53 PM73.0 °F33.1 °F23 %30.12 in10.0 miENE (70°)12.7 mphClear
1:53 PM73.0 °F32.0 °F22 %30.10 in10.0 miEast (90°)10.4 mphClear
2:53 PM73.9 °F32.0 °F21 %30.09 in10.0 miEast (80°)10.4 mph19.6 mphClear
3:53 PM72.0 °F30.9 °F22 %30.10 in10.0 miEast (90°)12.7 mphClear
4:53 PM69.1 °F30.0 °F23 %30.11 in10.0 miEast (80°)9.2 mphClear
5:53 PM61.0 °F33.1 °F35 %30.13 in10.0 miCalmClear
6:53 PM51.1 °F35.1 °F54 %30.14 in10.0 miCalmClear
7:22 PM50.0 °F37.4 °F62 %30.14 in10.0 miCalmClear
7:53 PM51.1 °F36.0 °F56 %30.15 in10.0 miVariable3.5 mphClear
8:53 PM46.0 °F36.0 °F68 %30.14 in10.0 miNE (50°)12.7 mph26.5 mphClear
9:53 PM46.0 °F35.1 °F66 %30.13 in10.0 miVariable3.5 mphClear
10:42 PM42.8 °F35.6 °F76 %30.14 in10.0 miSE (140°)9.2 mph43.7 mphSqualls
10:53 PM46.0 °F35.1 °F66 %30.12 in10.0 miNorthClear
11:53 PM41.0 °F34.0 °F76 %30.12 in10.0 miNorthClear
Hourly data recorded from KRNM, located miles away from Descanso, California







STORIES FROM OUR PARTNERS